Flag for Lebanon Weather past 2 weeks in Sidon, Lebanon

Now
66 °F

Scattered clouds.


Feels Like: 66 °F
Forecast: 61 / 70 °F
Wind: 7 mph from Southwest

Location: Beirut Airport

Current Time: Apr 1, 2015 at 4:42:28 PM

Latest Report: Apr 1, 2015 at 4:00 PM


Visibility: 5 mi

Pressure: 29.98 "Hg

Humidity: 68%

Dew point: 55 °F

Location of SidonLocation

Historic Weather in Sidon — Graph

°F

Sidon temperature yesterday

Maximum temperature yesterday: 66 °F (at 12:00 PM)
Minimum temperature yesterday: 59 °F (at 1:00 AM)
Average temperature yesterday: 63 °F

Past Weeks' High & Low Weather Summary

 TemperatureHumidityPressure
High82 °F (Mar 28, 6:00 AM)88% (Mar 29, 9:00 PM)30.21 "Hg (Mar 29, 9:00 PM)
Low54 °F (Mar 22, 4:00 AM)21% (Mar 27, 12:00 PM)29.65 "Hg (Mar 28, 5:00 AM)
Average63 °F62%30.01 "Hg
* Reported Mar 17 2:00 PM — Apr 1 3:00 PM, Sidon, Weather by CustomWeather, © 2015

Note: Actual official high and low records may vary slightly from our data, if they occured in-between our weather recording intervals... More about our weather records

Advertising

Sidon weather history for previous 24 hours

 ConditionsComfort  
Time TempWeatherWind HumidityBarometerVisibility
3:00 PM
Wed, Apr 1
66 °FScattered clouds.7 mph73%29.98 "Hg5 mi
2:00 PM66 °FPartly sunny.12 mph68%29.98 "Hg5 mi
1:00 PM66 °FPartly sunny.13 mph73%29.98 "Hg5 mi
12:00 PM66 °FPartly sunny.13 mph68%29.98 "Hg5 mi
11:00 AM66 °FPartly sunny.13 mph64%29.98 "Hg5 mi
10:00 AM64 °FPartly sunny.13 mph68%29.95 "Hg5 mi
9:00 AM63 °FPartly sunny.13 mph68%29.92 "Hg5 mi
8:00 AM61 °FThunderstorms. Partly sunny.8 mph77%29.89 "Hg4 mi
7:00 AM61 °FPassing clouds.2 mph77%29.89 "Hg4 mi
6:00 AM61 °FPassing clouds.7 mph83%29.86 "Hg4 mi
5:00 AM61 °FThunderstorms. Passing clouds.6 mph77%29.86 "Hg4 mi
4:00 AM63 °FPassing clouds.10 mph64%29.83 "Hg5 mi
3:00 AM64 °FPassing clouds.10 mph52%29.86 "HgN/A
2:00 AM63 °FPassing clouds.6 mph59%29.83 "HgN/A
1:00 AM64 °FPassing clouds.5 mph60%29.86 "Hg5 mi
12:00 AM64 °FPassing clouds.6 mph56%29.86 "Hg5 mi
11:00 PM
Tue, Mar 31
63 °FPassing clouds.5 mph64%29.86 "Hg5 mi
10:00 PM64 °FPassing clouds.5 mph60%29.89 "Hg5 mi
9:00 PM63 °FPassing clouds.5 mph68%29.89 "HgN/A
8:00 PM63 °FPassing clouds.10 mph73%29.92 "Hg5 mi
7:00 PM63 °FScattered clouds.10 mph73%29.92 "Hg5 mi
6:00 PM64 °FPassing clouds.10 mph73%29.92 "HgN/A
5:00 PM64 °FPartly sunny.13 mph73%29.95 "HgN/A
4:00 PM66 °FPassing clouds.14 mph68%29.95 "HgN/A
Weather by CustomWeather, © 2015

See weather overviewHow to use our weather pages